Content
SEND FEEDBACK

Daily
Averages
Monthly
Summary
United States of America

BERKELEY, MISSOURI


Home > North America > United States > Missouri
Elevation: 172 meters     Latitude: 38 45N     Longitude: 090 22W

WEATHER
 
SELECT A DAY
Number of Records: 203,713;   Date Range: 1/1/95 - 9/21/14
 
SHARE

PRINT THIS DATA

[ ← Previous Day ]
WEATHER ALMANAC - 22 MARCH, 2013
[ Next Day → ]
[ °F ]   °C
Weather ElementAverageHighLow
Temperature2.9 °C6.1 °C (2:51 pm)0 °C (1:51 am)
Dewpoint-6.1 °C-4.4 °C (8:51 pm)-7.2 °C (1:51 am)
Humidity52.7 %61 % (2:51 am)40 % (3:51 pm)
Barometer1017.6 hPa1018.6 hPa (8:51 am)1016.3 hPa (5:51 pm)
Wind Speed11.7 km/h16.7 km/h (8:51 pm)
Weather ElementAverage
Visibility16.1 km
Wind DirectionESE (107 °)

Weather ElementTotal
Precipitation---
Heating Degree Days15.3 (Base 18.3)
Averaged from 23 records on 22 March, 2013
WEATHER CONDITIONS BREAKOUT
WIND DIRECTION BREAKOUT
WEATHER BY HOUR - 22 MARCH, 2013
[ °F ]   °C
Local TimeTemperatureDewpointHumidityBarometerVisibilityWind DirectionWind SpeedGust SpeedPrecipitationEventsConditions
1:51 AM0 °C-7.2 °C59 %1017.6 hPa16.1 kmESE (110°)14.8 km/hMostly Cloudy
2:51 AM0 °C-6.7 °C61 %1017.9 hPa16.1 kmESE (120°)13 km/hOvercast
3:51 AM0.6 °C-7.2 °C56 %1017.3 hPa16.1 kmESE (120°)11.1 km/hOvercast
4:51 AM0.6 °C-6.7 °C59 %1017.3 hPa16.1 kmEast (100°)9.3 km/hOvercast
5:51 AM0 °C-6.7 °C61 %1017.6 hPa16.1 kmEast (100°)9.3 km/hOvercast
6:51 AM0 °C-6.7 °C61 %1017.6 hPa16.1 kmEast (80°)11.1 km/hMostly Cloudy
7:51 AM0 °C-6.7 °C61 %1018.3 hPa16.1 kmEast (100°)13 km/hOvercast
8:51 AM0.6 °C-6.1 °C61 %1018.6 hPa16.1 kmEast (90°)14.8 km/hOvercast
9:51 AM1.1 °C-5.6 °C61 %1018.6 hPa16.1 kmEast (100°)14.8 km/hOvercast
10:51 AM1.7 °C-6.1 °C57 %1018.6 hPa16.1 kmEast (100°)11.1 km/hOvercast
11:51 AM2.8 °C-6.1 °C52 %1018.3 hPa16.1 kmEast (90°)11.1 km/hOvercast
12:51 PM4.4 °C-5.6 °C49 %1017.6 hPa16.1 kmESE (110°)13 km/hMostly Cloudy
1:51 PM5 °C-6.1 °C45 %1017.3 hPa16.1 kmESE (110°)13 km/hOvercast
2:51 PM6.1 °C-6.1 °C42 %1016.6 hPa16.1 kmSouth (170°)13 km/hOvercast
3:51 PM6.1 °C-6.7 °C40 %1016.6 hPa16.1 kmSouth (180°)9.3 km/hOvercast
4:51 PM6.1 °C-6.1 °C42 %1016.6 hPa16.1 kmSSE (160°)9.3 km/hOvercast
5:51 PM5.6 °C-5.6 °C45 %1016.3 hPa16.1 kmSE (140°)9.3 km/hOvercast
6:51 PM5.6 °C-5.6 °C45 %1016.6 hPa16.1 kmEast (100°)13 km/hOvercast
7:51 PM5 °C-5.6 °C47 %1016.9 hPa16.1 kmEast (90°)11.1 km/hOvercast
8:51 PM4.4 °C-4.4 °C53 %1017.3 hPa16.1 kmENE (70°)16.7 km/hOvercast
9:51 PM3.9 °C-5 °C53 %1017.9 hPa16.1 kmEast (80°)9.3 km/hOvercast
10:51 PM3.9 °C-5 °C53 %1017.9 hPa16.1 kmENE (70°)9.3 km/hOvercast
11:51 PM3.9 °C-5.6 °C50 %1017.9 hPa16.1 kmENE (70°)11.1 km/hOvercast
Hourly data recorded from KSTL, located 0 kilometers away from Berkeley, Missouri







STORIES FROM OUR PARTNERS